GFSNE_prec_cthk_060.txt.gz
RH
77 69 64 67 79 80 74 74 69 66 69 67 71 77 78 76 72 63 58 53 53 54 51 49 47 47 49 48 46 45 40 35 30 29 26 26 29 29
64 63 68 63 68 65 72 75 66 74 68 68 73 75 76 72 65 60 55 55 55 56 54 50 50 51 52 54 50 54 52 46 39 34 32 33 32 34
66 55 71 59 68 64 71 69 67 74 67 68 66 66 61 57 55 56 58 57 58 60 61 55 56 55 55 55 54 53 57 54 47 40 39 39 37 41
57 57 70 62 66 67 69 71 68 72 69 63 58 52 50 55 59 60 59 61 59 59 69 70 63 65 76 64 65 58 58 60 56 48 44 41 39 42
59 62 63 61 67 70 72 71 70 66 58 50 46 51 47 49 49 50 50 53 49 54 54 62 76 77 72 75 73 76 72 66 59 53 53 49 44 43
61 56 65 68 69 71 70 64 50 43 44 45 44 43 46 46 49 48 43 43 41 43 44 46 63 73 77 84 93 86 83 71 59 58 57 58 52 50
61 62 64 64 66 63 51 43 43 42 44 47 48 47 45 45 45 44 47 46 40 38 43 45 58 69 87 87 87 90 83 70 61 63 58 57 54 54
60 63 63 60 50 43 43 44 45 45 46 48 48 47 45 46 42 43 45 46 45 32 46 52 71 73 86 84 86 86 75 67 66 67 62 58 58 58
60 58 49 44 42 43 44 45 46 47 48 48 48 46 42 39 37 38 40 38 30 28 40 51 73 77 82 83 84 82 75 71 70 69 64 63 62 57
47 44 45 46 46 45 44 42 39 37 35 33 29 26 25 23 23 19 14 12 22 40 36 57 70 79 84 85 86 87 83 77 71 70 69 66 61 55
45 47 49 49 45 39 38 37 37 36 35 33 31 29 27 27 28 27 21 23 18 17 37 48 72 84 88 92 90 94 82 76 71 74 70 64 57 50
53 53 49 45 42 41 41 41 40 38 35 33 31 27 25 22 23 30 32 30 32 29 21 51 74 97 97 95 92 84 79 70 70 71 64 59 51 52
52 49 46 44 43 44 44 44 43 39 36 33 29 26 22 17 16 21 33 42 44 37 31 52 90 99 99 92 83 80 77 68 71 64 62 55 54 59
52 48 46 47 48 49 47 47 44 41 38 32 28 24 20 18 15 15 24 39 48 48 41 87 92 94 92 86 77 77 75 75 71 64 62 59 62 67
51 54 53 54 53 51 50 48 46 42 38 35 29 23 20 18 20 20 20 38 50 48 44 66 90 92 86 80 80 77 79 75 69 71 67 63 64 68
59 58 57 56 56 55 52 50 46 44 41 37 28 22 17 19 24 28 25 42 54 56 55 67 83 90 88 85 84 87 82 74 73 74 66 65 66 70
64 61 60 59 58 55 53 51 50 47 42 35 25 17 18 22 28 32 41 54 70 77 80 90 95 95 86 88 89 91 83 75 75 74 63 63 67 74
62 63 64 60 58 56 57 55 53 49 42 31 19 19 21 25 33 36 58 68 85 89 98 99 97 96 88 92 93 91 83 77 77 68 60 62 70 77
67 68 64 63 63 64 62 58 54 48 36 24 19 20 23 27 41 44 60 77 88 96 98 97 97 97 89 92 96 88 82 79 76 61 57 60 72 81
72 70 70 71 71 68 64 59 51 38 29 24 22 22 25 29 45 58 72 82 93 95 95 95 95 91 91 94 94 90 84 83 76 61 56 60 70 85
76 78 76 75 74 69 63 53 41 33 27 25 26 26 26 30 48 73 84 91 98 99 95 95 92 93 96 97 96 88 84 86 78 63 56 54 59 82
85 82 79 76 71 64 52 42 35 31 28 27 29 30 27 30 43 77 90 94 99 90 94 98 97 96 98 96 96 89 86 83 77 66 57 52 57 76
88 82 75 70 61 51 44 38 33 31 31 31 33 34 30 29 37 79 91 99 99 97 97 97 95 96 98 98 98 90 84 82 77 66 56 55 59 75

GFSNE_prec_cthk_066.txt.gz
RH
90 87 86 85 82 76 69 74 72 56 56 57 63 61 65 63 67 69 68 67 67 64 63 63 61 59 61 64 64 66 68 66 69 66 68 60 58 51
87 81 76 79 72 68 62 72 56 59 58 55 64 66 61 67 70 66 68 67 62 60 61 63 63 61 63 62 62 62 68 68 70 74 75 76 68 63
93 82 84 74 72 60 60 55 63 54 52 59 64 64 70 70 70 65 55 52 50 53 54 56 57 59 61 62 65 62 62 65 64 71 67 72 79 79
84 81 80 72 69 61 57 57 67 58 60 63 62 68 72 68 57 46 47 48 49 50 50 51 53 53 53 52 51 51 49 49 49 54 57 68 69 84
77 73 72 66 61 59 57 55 58 58 63 62 70 70 65 51 46 46 46 45 45 45 46 46 44 44 43 41 41 41 40 40 40 39 47 56 77 86
78 75 70 64 56 52 59 55 61 67 67 72 70 61 49 46 45 43 41 41 39 39 41 38 39 37 33 30 28 26 27 31 35 45 56 66 86 98
76 74 67 54 61 53 60 61 68 66 73 71 61 52 51 49 47 45 42 39 39 43 42 43 40 34 30 25 20 17 22 27 36 50 69 85 88 87
74 71 61 53 54 56 60 65 67 73 70 60 55 55 54 50 46 44 44 47 45 47 41 39 37 30 27 24 18 16 31 32 40 61 80 83 83 78
75 70 57 55 58 61 64 68 69 61 55 56 57 52 48 47 48 50 49 46 46 45 43 37 36 29 26 24 21 17 27 35 51 72 72 74 71 70
68 65 62 59 61 65 68 64 55 53 54 52 52 53 51 54 55 50 51 48 47 47 47 41 34 27 26 23 22 17 23 38 76 88 83 77 74 78
64 67 64 62 65 63 56 52 53 52 51 52 54 53 56 57 55 55 53 50 48 48 50 44 32 29 24 22 20 19 23 33 77 83 84 87 81 82
71 70 67 63 57 52 51 51 52 53 54 57 56 56 59 57 60 59 58 58 55 47 52 42 34 33 29 22 27 32 37 43 84 89 88 87 86 79
71 67 63 58 54 52 52 53 52 56 63 56 60 62 63 65 62 61 63 61 57 54 47 43 30 25 34 39 35 48 60 71 91 95 96 87 77 69
69 66 61 57 56 56 56 60 64 60 60 68 69 70 65 63 64 65 64 61 58 54 42 40 34 29 41 47 48 69 77 86 91 85 82 78 70 59
72 68 66 61 58 59 66 68 68 75 79 74 69 67 67 68 70 67 64 59 56 49 36 39 38 46 54 54 62 75 87 87 84 82 77 70 62 67
79 70 64 63 71 78 78 79 83 80 70 70 74 69 72 75 71 67 63 59 52 35 27 41 49 63 62 54 77 85 89 88 87 82 75 70 71 73
72 71 78 83 85 85 87 88 78 74 77 76 76 81 78 76 71 67 63 57 43 25 18 33 59 68 66 70 77 89 92 95 91 81 79 78 76 75
85 86 86 87 90 93 88 83 79 81 83 87 87 84 78 75 69 66 60 46 25 19 22 34 50 65 78 77 86 97 94 99 91 82 83 81 77 72
96 96 97 93 90 85 82 85 91 91 91 90 88 82 78 73 68 59 44 27 19 19 25 42 61 73 87 87 95 97 98 96 88 86 86 81 75 67
97 96 95 95 95 97 97 97 97 98 96 91 85 80 74 67 55 40 30 24 19 19 25 50 70 82 91 99 99 98 95 89 85 90 87 82 76 69
97 97 98 97 97 98 98 98 98 97 92 84 77 69 60 47 39 33 27 24 22 24 30 57 77 90 90 92 97 97 91 87 90 95 89 86 80 70
98 98 98 98 98 98 98 98 95 87 73 62 54 48 44 39 35 32 29 27 27 28 35 67 89 92 93 93 95 97 96 93 95 94 89 85 80 71
98 98 99 99 99 97 87 73 65 56 45 42 41 40 39 37 37 36 36 35 34 33 40 81 95 96 95 98 95 99 95 95 96 90 86 85 76 68

GFSNE_prec_cthk_072.txt.gz
RH
75 75 75 69 65 67 79 86 94 91 89 95 88 80 62 70 60 54 56 53 54 57 56 61 62 60 57 56 56 56 57 57 58 57 55 56 61 63
71 68 64 59 64 73 84 87 92 91 89 85 82 74 69 67 57 55 55 57 53 57 61 59 52 46 48 50 51 52 52 51 49 50 52 55 58 60
67 62 62 60 74 91 94 94 96 97 95 89 77 70 59 67 61 56 53 53 59 59 59 47 40 41 45 47 46 45 45 45 47 50 51 51 51 50
76 71 66 79 95 97 98 93 96 97 94 89 78 71 64 57 60 56 57 63 62 59 47 39 37 38 44 44 44 46 48 48 47 45 44 41 39 39
79 82 89 96 94 94 94 97 95 95 93 84 72 64 60 60 61 58 63 60 54 49 40 37 38 42 46 50 52 53 53 52 50 46 44 40 34 29
90 94 95 97 97 95 97 97 95 93 89 78 75 63 58 62 58 62 59 53 53 43 38 41 44 48 54 57 60 60 60 56 51 47 41 36 30 25
98 97 98 97 99 98 98 92 90 92 86 79 71 62 63 63 63 60 54 51 45 40 45 47 51 60 61 64 66 64 60 54 49 42 36 31 27 21
93 90 88 87 91 90 91 89 91 90 84 72 68 68 68 68 64 59 56 50 46 51 51 54 63 65 69 69 66 63 58 51 45 38 33 28 23 21
90 92 90 89 88 88 88 90 92 88 79 72 70 69 71 68 65 58 52 54 57 57 61 65 71 71 71 71 67 60 55 48 40 36 34 28 22 24
93 93 94 92 89 88 89 91 93 95 92 80 70 71 70 63 57 52 54 55 59 69 69 71 73 70 72 72 65 59 53 45 40 37 35 31 21 24
87 87 86 87 88 88 88 94 99 97 85 71 69 68 65 58 58 56 58 69 72 73 78 75 76 74 68 68 67 62 53 48 46 38 32 32 23 29
81 84 84 88 86 89 90 88 87 89 70 64 62 60 58 62 63 64 67 72 82 81 77 76 80 78 65 65 66 63 56 52 47 38 33 33 38 49
81 83 86 87 92 87 98 96 88 68 60 61 59 63 68 67 69 76 78 81 80 83 86 82 80 77 73 64 63 61 54 49 48 39 42 51 55 71
80 84 87 92 92 97 93 81 69 61 59 63 73 70 74 78 83 87 85 78 83 86 85 85 75 77 73 68 66 60 44 43 45 46 63 65 80 87
91 89 98 97 93 86 78 68 61 68 77 77 81 89 93 92 86 83 83 87 88 89 85 81 77 75 76 73 65 43 27 36 46 54 70 74 79 77
98 98 95 89 84 80 77 85 87 89 93 96 96 95 92 87 88 90 91 92 89 88 85 84 80 74 76 65 45 25 30 48 53 66 77 80 82 80
97 94 91 93 93 94 92 94 96 94 96 95 95 92 91 95 96 96 93 91 90 89 86 84 81 70 54 40 29 26 32 55 61 76 82 81 84 88
96 94 93 95 95 96 97 96 96 95 94 93 94 96 95 96 95 94 92 92 91 88 80 66 54 46 40 34 31 29 41 60 80 82 85 87 93 92
94 96 96 96 96 97 96 96 95 93 92 92 93 93 93 94 93 93 92 87 76 63 54 51 47 46 40 34 33 41 53 76 88 90 91 94 92 94
96 96 96 95 93 92 90 90 91 92 93 93 93 93 92 88 81 72 64 58 52 48 42 40 43 42 40 38 29 30 66 79 90 92 96 98 96 89
95 94 93 91 91 92 93 93 93 93 92 86 78 67 56 46 42 42 40 41 41 41 42 42 44 43 40 37 32 35 65 89 93 99 99 99 97 89
95 94 94 94 95 94 92 85 73 61 54 46 40 36 34 34 36 37 39 40 41 42 42 42 42 42 42 44 39 47 77 92 98 99 99 98 98 94
95 94 92 85 72 60 53 47 39 34 31 29 28 31 34 35 39 41 43 44 45 46 47 47 47 47 46 44 44 57 89 99 99 98 96 95 96 95

GFSNE_prec_cthk_075.txt.gz
RH
83 89 88 81 83 86 81 74 71 69 69 70 83 86 89 86 80 75 68 67 64 53 49 55 49 52 54 57 54 46 41 44 47 52 54 53 51 52
82 90 81 79 80 80 81 76 70 68 72 76 89 92 92 88 85 78 69 59 63 58 52 48 54 55 57 52 42 37 38 41 45 47 47 47 48 48
86 85 80 80 78 78 77 72 69 71 80 86 95 95 94 94 89 81 65 64 56 54 52 51 56 55 49 41 34 34 38 41 43 46 47 50 49 49
78 76 73 74 78 82 84 78 75 85 90 94 94 96 98 98 89 75 65 58 59 61 54 57 54 42 39 32 32 38 41 44 50 50 52 53 54 52
77 77 76 76 78 84 87 90 91 97 95 94 93 96 96 95 85 83 75 64 63 59 58 57 45 40 36 36 40 45 47 52 53 54 56 55 53 49
82 84 83 82 80 87 95 96 93 94 97 97 97 95 92 91 88 83 79 68 63 65 62 56 48 43 41 42 47 50 56 59 60 59 56 56 52 48
88 86 86 86 85 92 98 95 97 93 93 94 92 91 98 93 92 82 74 70 68 68 63 59 54 49 49 51 55 65 67 68 65 61 58 55 49 44
77 78 80 86 91 98 91 92 92 95 98 97 99 92 99 96 91 86 81 72 69 68 64 60 55 56 55 62 67 70 71 69 63 61 58 52 47 43
84 82 85 89 97 96 98 97 95 97 91 91 93 95 93 97 98 94 80 67 66 65 62 58 58 61 67 70 75 74 73 69 66 60 56 52 48 40
84 91 95 96 99 97 97 98 98 97 97 93 88 94 96 98 98 91 76 70 63 61 58 64 69 71 76 76 78 77 73 72 67 61 59 52 45 34
85 86 89 91 91 91 93 95 97 95 86 93 89 95 97 85 88 80 66 59 59 69 73 72 80 80 79 77 79 80 76 71 68 61 58 53 40 32
83 83 86 86 84 85 85 88 86 82 98 89 91 96 90 81 74 66 60 65 77 74 83 88 87 86 78 80 81 80 75 73 66 65 62 50 36 34
74 76 76 75 77 80 83 86 86 96 97 90 93 84 76 71 69 73 76 75 79 86 93 87 85 89 87 80 79 79 74 73 73 71 52 43 35 46
72 74 75 76 78 81 83 86 94 89 91 84 77 75 80 86 82 83 88 91 91 88 85 88 89 91 90 84 80 76 76 76 69 42 31 47 48 58
79 80 83 88 91 95 94 96 92 86 81 80 83 88 90 92 93 94 90 88 86 90 94 95 94 91 89 81 75 76 78 59 39 29 34 54 63 63
91 93 92 95 98 97 93 90 87 88 94 95 96 96 95 94 96 95 94 95 95 95 96 95 92 88 85 84 79 65 48 38 32 23 47 56 74 73
93 97 98 98 97 97 96 96 96 95 95 96 95 95 95 93 92 92 91 89 89 91 92 92 92 90 82 66 50 43 35 34 31 25 52 58 76 77
98 97 97 97 96 96 96 96 95 95 95 93 91 88 87 86 86 87 88 89 89 89 88 82 69 56 49 42 46 41 42 46 44 45 61 76 84 84
97 97 97 97 97 96 96 96 94 91 88 87 88 87 86 87 87 86 84 79 71 60 49 46 45 46 44 38 37 51 47 42 34 45 68 87 87 90
97 97 97 97 96 94 93 92 92 90 89 88 86 83 78 72 67 60 51 42 36 34 34 36 40 46 51 46 36 31 35 27 31 46 73 94 97 99
96 96 97 97 96 95 95 92 91 87 81 72 67 62 56 50 42 36 33 33 34 35 40 42 44 46 45 43 39 35 38 40 44 62 87 97 99 98
96 97 96 96 95 93 89 78 68 63 60 55 50 41 35 33 33 33 34 36 38 40 42 45 47 49 50 50 48 41 36 38 39 82 99 97 99 97
96 96 94 85 73 65 60 54 50 43 37 32 28 28 29 30 35 37 38 40 43 46 50 50 53 55 55 54 52 45 41 41 50 96 99 99 99 94

GFSNE_prec_cthk_078.txt.gz
RH
88 89 86 85 90 92 92 89 84 88 89 77 70 61 62 66 72 75 86 86 83 82 71 63 59 61 54 51 49 53 55 56 48 41 37 39 43 49
81 83 85 85 88 93 91 89 86 88 90 83 76 69 67 68 73 82 88 88 90 84 78 65 59 55 54 51 52 55 55 45 36 33 33 35 45 51
81 81 82 86 86 91 95 92 90 92 87 83 80 78 79 79 84 90 93 92 91 90 74 62 56 57 58 55 58 55 45 39 35 34 36 45 51 53
77 79 77 81 84 88 92 87 86 87 88 88 91 93 95 94 90 93 94 98 96 89 81 77 64 59 57 60 57 49 45 40 39 45 49 52 55 55
76 80 82 86 89 89 88 84 83 83 84 89 92 96 95 95 94 91 96 97 97 87 81 80 69 68 67 63 55 51 48 50 51 52 53 56 58 58
72 77 78 83 89 91 92 92 89 87 92 93 96 93 93 91 94 95 94 91 93 98 90 88 78 74 71 62 57 55 52 52 55 58 61 63 62 61
73 77 80 83 90 92 93 95 93 95 92 95 94 91 90 94 93 98 93 90 95 99 91 93 83 76 72 68 61 56 56 58 65 68 69 68 66 63
69 74 80 87 82 91 91 92 92 94 93 97 98 94 95 95 97 95 94 89 92 96 98 97 90 77 74 65 60 61 67 72 75 75 72 68 66 62
64 69 75 83 88 93 89 88 90 96 98 98 98 98 99 95 95 97 98 98 96 97 95 89 85 76 67 63 68 73 76 80 79 77 74 70 67 64
67 69 76 78 81 87 92 97 96 98 93 98 97 97 98 98 94 97 97 94 91 93 91 83 75 67 69 75 75 81 82 82 81 80 76 72 70 66
69 72 76 75 80 86 90 88 91 90 93 86 90 86 86 88 86 88 96 95 93 85 77 73 73 78 79 80 83 82 81 82 83 81 77 75 73 67
65 66 69 75 77 80 82 83 84 82 81 78 80 77 87 86 84 88 90 85 78 77 77 84 84 86 83 81 81 82 82 83 85 80 79 77 73 68
80 79 82 80 80 80 79 80 81 81 82 81 81 79 83 79 88 84 80 79 81 84 86 88 89 92 89 77 75 81 84 87 82 80 79 74 67 51
92 92 91 92 94 90 86 83 82 86 87 84 93 93 90 87 86 91 95 94 92 94 96 95 89 81 77 78 79 79 81 78 75 73 73 55 37 37
98 98 97 95 96 97 92 91 90 94 96 96 94 91 92 96 96 96 95 95 94 92 89 87 87 87 86 83 77 76 76 73 70 55 45 40 41 40
98 99 99 98 98 90 91 95 96 94 94 96 97 96 96 95 94 93 94 92 87 84 83 84 83 82 80 80 80 73 63 48 36 34 33 32 30 44
98 98 98 98 98 95 94 97 97 97 97 96 97 96 96 95 92 89 86 82 80 79 79 79 78 74 67 62 53 44 39 38 36 37 46 43 37 47
97 97 97 97 97 96 96 96 96 96 96 96 95 94 92 89 87 84 82 81 74 67 63 60 56 51 43 36 39 40 42 42 40 45 50 51 38 51
97 97 96 96 96 96 96 96 96 95 95 94 91 90 88 85 76 66 59 55 53 53 51 47 41 37 35 35 36 41 43 40 39 39 44 43 38 49
96 97 96 96 95 96 95 96 95 93 91 88 81 71 63 59 56 52 50 47 47 42 36 34 35 41 43 41 37 29 35 36 39 40 39 36 44 68
96 96 96 97 95 96 96 95 91 84 71 63 60 57 54 50 46 44 43 39 36 35 35 34 35 36 38 37 35 30 33 41 48 49 49 42 50 85
96 96 96 96 96 94 83 72 64 61 57 53 49 45 43 41 38 34 34 34 34 36 36 36 37 39 42 49 47 42 39 38 42 44 47 44 75 97
96 95 89 75 66 62 58 53 49 47 44 41 39 35 32 31 30 30 30 32 35 37 37 41 43 45 47 51 52 50 48 46 48 48 45 64 98 97